Location: ??
(35.5653°N, 139.6194°E)
Time: 06:49:55
(UTC+00:00)

Yuri Rocket - Pass Details

Date: 20 November 2019
Orbit: 568 x 1914 km, 28.2° (Epoch: 06 December)

Event Time Altitude Azimuth Distance (km) Brightness Sun altitude
Exits shadow 19:33:06 30° 229° (SW) 1,548 4.7 -22.1°
Maximum altitude 19:35:16 40° 185° (S) 1,181 4.4 -21.6°
Drops below altitude 10° 19:39:53 10° 116° (ESE) 2,127 6.9 -20.7°
Sets 19:42:06 0° 108° (ESE) 2,931 8.1 -20.3°
